Weather History for Burlington, CO

Change the Weather History Date:

Tuesday, June 25, 2013

  Actual Average Record
Temperature  
Mean Temperature 80 °F 71 °F  
Max Temperature 96 °F 86 °F 104 °F (1954)
Min Temperature 63 °F 57 °F 41 °F (1968)
Cooling Degree Days 14    
Growing Degree Days 28 (Base 50)    
Moisture  
Dew Point 45 °F    
Average Humidity 34    
Maximum Humidity 78    
Minimum Humidity 13    
Precipitation  
Precipitation 0.00 in 0.09 in 0.40 in (1966)
Month to date precipitation 1.92 2.43  
Year to date precipitation 7.52 8.16  
Sea Level Pressure  
Sea Level Pressure 29.67 in    
Wind  
Wind Speed 12 mph (NNW)    
Max Wind Speed 17 mph    
Max Gust Speed 25 mph    
Visibility 10 miles    
Events      
T = Trace of Precipitation, MM = Missing Value Source: NWS Daily Summary

Daily Weather History Graph

Daily Weather History Graph

Search for Another Location

Airport:

Trip Planner

Search our weather history database for the weather conditions in past years. The results will help you decide how hot, cold, wet, or windy it might be!

Date:

Astronomy

Jun. 25, 2013 Rise Set
Actual Time 5:24 AM MDT 8:19 PM MDT
Civil Twilight 4:51 AM MDT 8:51 PM MDT
Nautical Twilight 4:10 AM MDT 9:32 PM MDT
Astronomical Twilight 3:23 AM MDT 10:19 PM MDT
Moon 10:07 PM MDT (6/25) 8:05 AM MDT (6/25)
Length of Visible Light 16h 00m
Length of Day
14h 55m
Waning Gibbous, 92% of the Moon is Illuminated
Jun 25
Waning Gibbous
Jun 29
Last Quarter
Jul 8
New
Jul 15
First Quarter
Jul 22
Full

Hourly Weather History & Observations

Time (MDT) Temp. Heat Index Dew Point Humidity Pressure Visibility Wind Dir Wind Speed Gust Speed Precip Events Conditions
12:53 AM 68.0 °F - 61.0 °F 78% 29.56 in 10.0 mi South 15.0 mph - N/A   Clear
1:53 AM 66.9 °F - 55.9 °F 68% 29.55 in 10.0 mi SW 10.4 mph - N/A   Scattered Clouds
2:53 AM 69.1 °F - 45.0 °F 42% 29.52 in 10.0 mi SW 11.5 mph - N/A   Overcast
3:53 AM 70.0 °F - 33.1 °F 26% 29.53 in 9.0 mi WNW 12.7 mph - N/A   Clear
4:53 AM 68.0 °F - 37.9 °F 33% 29.57 in 10.0 mi WNW 12.7 mph - N/A   Clear
5:53 AM 64.0 °F - 52.0 °F 65% 29.61 in 10.0 mi NW 11.5 mph - N/A   Clear
6:53 AM 66.9 °F - 57.9 °F 73% 29.64 in 10.0 mi NW 15.0 mph - N/A   Clear
7:53 AM 73.9 °F - 61.0 °F 64% 29.66 in 10.0 mi NW 11.5 mph - N/A   Clear
8:53 AM 81.0 °F 80.7 °F 55.0 °F 41% 29.68 in 10.0 mi NNW 15.0 mph - N/A   Clear
9:53 AM 86.0 °F - 52.0 °F 31% 29.67 in 10.0 mi North 13.8 mph 19.6 mph N/A   Clear
10:53 AM 89.1 °F - 45.0 °F 22% 29.69 in 10.0 mi North 17.3 mph 20.7 mph N/A   Clear
11:53 AM 90.0 °F - 43.0 °F 19% 29.70 in 10.0 mi North 10.4 mph 21.9 mph N/A   Clear
12:53 PM 91.0 °F - 41.0 °F 17% 29.70 in 10.0 mi NNW 11.5 mph 25.3 mph N/A   Clear
1:53 PM 91.9 °F - 39.9 °F 16% 29.70 in 10.0 mi WNW 8.1 mph - N/A   Clear
2:53 PM 91.9 °F - 39.9 °F 16% 29.70 in 10.0 mi NNW 6.9 mph 16.1 mph N/A   Clear
3:53 PM 93.0 °F - 37.0 °F 14% 29.70 in 10.0 mi Variable 6.9 mph - N/A   Clear
4:53 PM 93.9 °F - 37.0 °F 14% 29.69 in 10.0 mi North 6.9 mph 16.1 mph N/A   Clear
5:53 PM 93.9 °F - 35.1 °F 13% 29.69 in 10.0 mi NNE 13.8 mph - N/A   Clear
6:53 PM 91.9 °F - 37.0 °F 15% 29.70 in 10.0 mi North 6.9 mph - N/A   Clear
7:53 PM 84.0 °F - 42.1 °F 23% 29.72 in 10.0 mi NE 5.8 mph - N/A   Clear
8:53 PM 78.1 °F - 39.9 °F 25% 29.73 in 10.0 mi NE 5.8 mph - N/A   Clear
9:53 PM 72.0 °F - 39.9 °F 31% 29.76 in 10.0 mi NNE 9.2 mph - N/A   Clear
10:53 PM 70.0 °F - 43.0 °F 38% 29.77 in 10.0 mi East 8.1 mph - N/A   Clear
11:53 PM 68.0 °F - 45.0 °F 43% 29.80 in 10.0 mi East 6.9 mph - N/A   Clear